Regional Weather Roundup
Issued by NWS Sterling, VA

Home | Current Version | Previous Version | Text Only | Print | Product List | Glossary Off
Versions: 1 2 3 4 5 6 7 8 9 10 11 12 13 14 15 16 17 18 19 20 21 22 23 24 25 26 27 28 29 30 31 32 33 34 35 36 37 38 39 40 41 42 43 44 45 46 47 48 49 50

000
ASUS41 KLWX 042110
RWRLWX

REGIONAL WEATHER ROUNDUP
NATIONAL WEATHER SERVICE BALTIMORE MD/WASHINGTON DC
500 PM EDT TUE AUG 04 2015

Note: "FAIR" indicates few or no clouds below 12,000 feet
with no significant weather and/or obstructions to visibility.
 TC=TEMPERATURE CELSIUS

 * =Non NWS site. Station does not report precipitation (e.g. rain,
    snow, etc.), thunder, or fog.

DCZ001-MDZ009-015-VAZ040>042-051-053>054-042200-
WASHINGTON METRO

CITY           SKY/WX    TMP DP  RH WIND       PRES   REMARKS
WASHINGTON NAT PTSUNNY   94  68  42 SW14      29.88S HX  98
DULLES         PTSUNNY   88  66  48 S9G17     29.88F HX  90
ANDREWS AFB    SUNNY     91  64  40 SW13      29.88F HX  92
FT BELVOIR     MOSUNNY   92  65  40 S7        29.87F HX  94
QUANTICO       SUNNY     93  65  39 SW8G18    29.88F HX  95
COLLEGE PARK*  PTSUNNY   91  61  35 CALM      29.87S HX  91
LEESBURG*      PTSUNNY   88  68  51 CALM      29.90S HX  91
MANASSAS*      MOSUNNY   90  64  43 MISG      29.88F HX  91
GAITHERSBURG*  PTSUNNY   88  68  51 NW3       29.93S HX  91

$$

MDZ006>007-011-014-042200-
BALTIMORE METRO

CITY           SKY/WX    TMP DP  RH WIND       PRES   REMARKS
BWI AIRPORT    PTSUNNY   91  65  41 VRB5      29.87F HX  93
MD SCIENCE CTR   N/A     91  64  40 MISG      29.88S HX  92
MARTIN STATE   PTSUNNY   91  66  43 W9        29.89S HX  94
ANNAPOLIS      MOSUNNY   86  72  62 SE9       29.87F HX  92
FORT MEADE*    PTSUNNY   86  70  58 CALM      29.90S HX  90

$$

MDZ012-015-019>023-042200-
MARYLAND EASTERN SHORE

CITY           SKY/WX    TMP DP  RH WIND       PRES   REMARKS
OCEAN CITY     MOSUNNY   87  73  62 SW12      29.90S HX  94
SALISBURY      MOSUNNY   90  72  55 W12       29.89F HX  97
BAY BRIDGE AP*   N/A     90  61  37 S6        29.88S
CAMBRIDGE*     SUNNY     91  64  40 SW7       29.88F HX  93
EASTON*        MOSUNNY   91  68  46 W6        29.92F HX  95

$$

MDZ017>025-042200-
SOUTHERN MARYLAND

CITY           SKY/WX    TMP DP  RH WIND       PRES   REMARKS
PATUXENT RIVER MOSUNNY   93  65  39 W5        29.87F HX  95
ST INIGOES     NOT AVBL
LEONARDTOWN*   SUNNY     91  63  38 SW6       29.90F HX  92

$$

MDZ003>005-042200-
NORTH CENTRAL MARYLAND

CITY           SKY/WX    TMP DP  RH WIND       PRES   REMARKS
FREDERICK*     NOT AVBL
HAGERSTOWN APT SUNNY     90  55  30 W12       29.90F
WESTMINSTER*   SUNNY     90  57  33 W9        29.92S

$$

MDZ501>502-042200-
WESTERN MARYLAND

CITY           SKY/WX    TMP DP  RH WIND       PRES   REMARKS
OAKLAND*       SUNNY     75  61  60 W7        30.04F
CUMBERLAND*    SUNNY     90  54  29 NW8       29.95F

$$

VAZ025>031-042200-
SHENANDOAH VALLEY

CITY           SKY/WX    TMP DP  RH WIND       PRES   REMARKS
WINCHESTER*    MOSUNNY   90  63  40 NW10      29.90S HX  90
FRONT ROYAL*   FAIR      88  70  55 S6        29.88F HX  92
LURAY*         FAIR      90  63  40 S10G20    29.89F HX  90
NEW MARKET*    MOCLDY    89  67  49 SW7       29.88S HX  92
STAUNTON*      SUNNY     93  62  35 SW9       29.95F HX  93
WAYNESBORO*    FAIR      87  65  47 SW12      29.95F

$$

WVZ021-048>050-054>055-042200-
EASTERN WEST VIRGINIA PANHANDLE

CITY           SKY/WX    TMP DP  RH WIND       PRES   REMARKS
MARTINSBURG    MOSUNNY   90  60  36 NW8       29.90S
PETERSBURG*    SUNNY     87  60  39 W15       29.92F

$$

VAZ036>039-050-042200-
CENTRAL FOOTHILLS

CITY           SKY/WX    TMP DP  RH WIND       PRES   REMARKS
CHARLOTTESVILL SUNNY     90  66  45 S6        29.90F HX  92
CULPEPER*      MOSUNNY   89  67  47 SW10G16   29.89S HX  92
ORANGE*        SUNNY     91  66  43 S6        29.91S HX  94
GORDONSVILLE*  FAIR      90  68  48 W5        29.90S HX  93
WARRENTON*     FAIR      91  70  49 S9        29.88F HX  97

$$

VAZ055>057-042200-
NORTH AND CENTRAL PIEDMONT

CITY           SKY/WX    TMP DP  RH WIND       PRES   REMARKS
FREDERICKSBRG* SUNNY     95  67  39 W6        29.87S HX  98
STAFFORD*      SUNNY     92  64  38 SW5       29.92F HX  94

$$

NCZ024-NYZ072-PAZ021-071-VAZ022-071-042200-
OTHER REGIONAL OBSERVATIONS

CITY           SKY/WX    TMP DP  RH WIND       PRES   REMARKS
NEW YORK CITY  SUNNY     87  53  31 VRB5G25   29.87R
PHILADELPHIA   MOSUNNY   91  57  31 W17G24    29.88S
PITTSBURGH     MOSUNNY   81  51  35 W7        29.96S
ROANOKE        PTSUNNY   90  62  39 W12       29.98R HX  90
RICHMOND       PTSUNNY   93  69  45 SW10      29.89F HX  98
RALEIGH        MOSUNNY   94  70  45 SE7       29.92F HX 100

$$

ANZ530>537-042200-
MARINE OBSERVATIONS

STATION/POSITION TIME  TEMP    WIND        PRES
                       AIR SEA DIR/SP/G
                 (UTC) (F)     (DEG/KT/KT) (MB)
THOMAS PT LIGHT  NOT AVBL
BALT KEY BRIDGE  2000   88     300/  6/  7 1011.5F
COVE POINT       2000   90     270/  6/  9 1013.0F
LEWISETTA        2000   90 83  230/  6/  8 1011.8F
SOLOMONS ISLAND  2000      84                N/A
PINEY POINT      2000          270/  6/  7   N/A

$$



USA.gov is the U.S. government's official web portal to all federal, state and local government web resources and services.